Forestdale, MA

9:56 PM EST on February 13, 2016 (GMT -0500)
Cape Cod Coast Guard Air Station

Weather History for KFMH - March, 2015

Change the Weather History Date:

Wednesday, March 4, 2015

  Actual Average Record
Temperature  
Mean Temperature 38 °F -  
Max Temperature 42 °F 40 °F 51 °F (2008)
Min Temperature 33 °F 23 °F 6 °F (2003)
Degree Days  
Heating Degree Days 28    
Moisture  
Dew Point 35 °F    
Average Humidity 95    
Maximum Humidity 100    
Minimum Humidity 85    
Precipitation  
Precipitation 0.20 in - - ()
Sea Level Pressure  
Sea Level Pressure 29.79 in    
Wind  
Wind Speed 15 mph (SW)    
Max Wind Speed 32 mph    
Max Gust Speed 43 mph    
Visibility 5 miles    
Events Rain    
Averages and records for this station are not official NWS values.
T = Trace of Precipitation, MM = Missing Value Source: NWS Daily Summary

Daily Weather History Graph

Daily Weather History Graph

Search for Another Location

Airport or City:

Trip Planner

Search our weather history database for the weather conditions in past years. The results will help you decide how hot, cold, wet, or windy it might be!

Date:

Astronomy

Mar. 04, 2015 Rise Set
Actual Time 6:12 AM EST 5:35 PM EST
Civil Twilight 5:44 AM EST 6:03 PM EST
Nautical Twilight 5:12 AM EST 6:35 PM EST
Astronomical Twilight 4:40 AM EST 7:08 PM EST
Moon 4:50 PM EST (3/4) 5:24 AM EST (3/4)
Length of Visible Light 12h 18m
Length of Day
11h 23m
Waxing Gibbous, 99% of the Moon is Illuminated
Mar 4
Waxing Gibbous
Mar 5
Full
Mar 13
Last Quarter
Mar 20
New
Mar 27
First Quarter

Hourly Weather History & Observations

Time (EST) Temp. Windchill Dew Point Humidity Pressure Visibility Wind Dir Wind Speed Gust Speed Precip Events Conditions
12:15 AM 35.6 °F 26.2 °F 33.8 °F 93% 29.83 in 3.0 mi South 15.0 mph 20.7 mph N/A   Overcast
12:35 AM 35.6 °F 25.2 °F 35.6 °F 100% 29.81 in 3.0 mi South 18.4 mph 25.3 mph N/A   Overcast
12:55 AM 37.4 °F 27.8 °F 37.4 °F 100% 29.80 in 3.0 mi South 17.3 mph 24.2 mph N/A   Overcast
1:15 AM 39.2 °F 30.8 °F 37.4 °F 93% 29.78 in 3.0 mi South 15.0 mph 24.2 mph N/A   Overcast
1:35 AM 37.4 °F 28.5 °F 37.4 °F 100% 29.76 in 2.5 mi South 15.0 mph - N/A   Overcast
1:55 AM 39.2 °F 30.8 °F 39.2 °F 100% 29.75 in 3.0 mi SSW 15.0 mph - N/A   Overcast
2:15 AM 41.0 °F 31.6 °F 39.2 °F 93% 29.73 in 4.0 mi SSW 20.7 mph 27.6 mph N/A   Overcast
2:35 AM 41.0 °F 30.5 °F 41.0 °F 100% 29.69 in 4.0 mi SSW 26.5 mph 32.2 mph N/A   Overcast
2:55 AM 42.8 °F 33.1 °F 41.0 °F 93% 29.69 in 9.0 mi SW 25.3 mph 42.6 mph N/A Rain Light Rain
3:15 AM 41.0 °F 29.5 °F 41.0 °F 100% 29.68 in 10.0 mi SW 32.2 mph 41.4 mph N/A Rain Light Rain
3:35 AM 39.2 °F 27.8 °F 39.2 °F 100% 29.69 in 8.0 mi WSW 27.6 mph 39.1 mph N/A Rain Light Rain
3:55 AM 37.4 °F 25.6 °F 37.4 °F 100% 29.69 in 10.0 mi WSW 26.5 mph 32.2 mph N/A Rain Light Rain
4:15 AM 37.4 °F 26.1 °F 35.6 °F 93% 29.69 in 10.0 mi WSW 24.2 mph 34.5 mph N/A   Overcast
4:35 AM 35.6 °F 23.4 °F 35.6 °F 100% 29.69 in 9.0 mi WSW 25.3 mph 35.7 mph N/A Rain Light Rain
4:55 AM 35.6 °F 24.8 °F 33.8 °F 93% 29.68 in 10.0 mi WSW 19.6 mph 29.9 mph N/A Rain Light Rain
5:15 AM 35.6 °F 24.2 °F 33.8 °F 93% 29.68 in 10.0 mi WSW 21.9 mph 29.9 mph N/A   Overcast
5:35 AM 35.6 °F 24.5 °F 33.8 °F 93% 29.69 in 10.0 mi WSW 20.7 mph 28.8 mph N/A   Overcast
5:55 AM 33.8 °F 22.2 °F 33.8 °F 100% 29.71 in 10.0 mi WSW 20.7 mph 27.6 mph N/A   Overcast
6:15 AM 33.8 °F 22.5 °F 33.8 °F 100% 29.71 in 9.0 mi WSW 19.6 mph 26.5 mph N/A   Overcast
6:35 AM 33.8 °F 22.8 °F 33.8 °F 100% 29.71 in 8.0 mi WSW 18.4 mph - N/A   Overcast
6:55 AM 33.8 °F 23.5 °F 33.8 °F 100% 29.73 in 5.0 mi WSW 16.1 mph 24.2 mph N/A Rain Light Rain
7:15 AM 33.8 °F 23.2 °F 33.8 °F 100% 29.73 in 5.0 mi WSW 17.3 mph 24.2 mph N/A Rain Light Rain
7:35 AM 33.8 °F 23.9 °F 33.8 °F 100% 29.74 in 4.0 mi West 15.0 mph - N/A Rain Light Rain
7:55 AM 33.8 °F 25.8 °F 33.8 °F 100% 29.74 in 4.0 mi West 10.4 mph - N/A Rain Light Rain
8:15 AM 33.8 °F 27.0 °F 33.8 °F 100% 29.76 in 3.0 mi West 8.1 mph - N/A Rain Light Rain
8:35 AM 33.8 °F 27.7 °F 33.8 °F 100% 29.77 in 3.0 mi WSW 6.9 mph - N/A   Light Drizzle
8:55 AM 35.6 °F 31.7 °F 33.8 °F 93% 29.77 in 3.0 mi SW 4.6 mph - N/A Rain Light Rain
9:15 AM 35.6 °F 29.9 °F 33.8 °F 93% 29.79 in 3.0 mi SW 6.9 mph - N/A Rain Light Rain
9:35 AM 35.6 °F 29.9 °F 33.8 °F 93% 29.79 in 3.0 mi SSW 6.9 mph - N/A   Mostly Cloudy
9:55 AM 35.6 °F 30.7 °F 33.8 °F 93% 29.80 in 4.0 mi SW 5.8 mph - N/A Rain Light Rain
10:15 AM 35.6 °F 29.9 °F 33.8 °F 93% 29.80 in 4.0 mi SW 6.9 mph - N/A   Overcast
10:35 AM 35.6 °F 29.9 °F 33.8 °F 93% 29.80 in 4.0 mi SW 6.9 mph - N/A   Overcast
10:55 AM 35.6 °F 28.6 °F 35.6 °F 100% 29.81 in 5.0 mi SW 9.2 mph - N/A   Mostly Cloudy
11:15 AM 35.6 °F 28.0 °F 33.8 °F 93% 29.80 in 4.0 mi SW 10.4 mph - N/A   Mostly Cloudy
11:35 AM 35.6 °F 28.6 °F 33.8 °F 93% 29.82 in 5.0 mi WSW 9.2 mph - N/A   Mostly Cloudy
11:55 AM 35.6 °F 28.6 °F 33.8 °F 93% 29.81 in 5.0 mi WSW 9.2 mph 16.1 mph N/A   Mostly Cloudy
12:15 PM 35.6 °F 27.1 °F 33.8 °F 93% 29.82 in 5.0 mi SW 12.7 mph 19.6 mph N/A   Mostly Cloudy
12:35 PM 35.6 °F 27.5 °F 33.8 °F 93% 29.79 in 4.0 mi SW 11.5 mph 17.3 mph N/A   Mostly Cloudy
12:55 PM 35.6 °F 27.5 °F 33.8 °F 93% 29.81 in 5.0 mi SW 11.5 mph 17.3 mph N/A   Mostly Cloudy
1:35 PM 35.6 °F 27.1 °F 33.8 °F 93% 29.79 in 5.0 mi SW 12.7 mph - N/A   Overcast
1:55 PM 35.6 °F 28.0 °F 33.8 °F 93% 29.79 in 5.0 mi WSW 10.4 mph 17.3 mph N/A   Overcast
2:15 PM 35.6 °F 27.5 °F 33.8 °F 93% 29.79 in 5.0 mi WSW 11.5 mph - N/A   Overcast
2:35 PM 35.6 °F 28.0 °F 33.8 °F 93% 29.79 in 5.0 mi SW 10.4 mph - N/A   Overcast
2:55 PM 35.6 °F 27.5 °F 33.8 °F 93% 29.79 in 5.0 mi SW 11.5 mph - N/A   Overcast
3:15 PM 35.6 °F 27.5 °F 33.8 °F 93% 29.78 in 6.0 mi SW 11.5 mph - N/A   Scattered Clouds
3:35 PM 35.6 °F 28.0 °F 33.8 °F 93% 29.78 in 6.0 mi SW 10.4 mph - N/A   Partly Cloudy
3:55 PM 35.6 °F 28.0 °F 33.8 °F 93% 29.79 in 5.0 mi SW 10.4 mph - N/A   Clear
4:15 PM 35.6 °F 27.5 °F 33.8 °F 93% 29.81 in 4.0 mi SW 11.5 mph 18.4 mph N/A   Clear
4:35 PM 35.6 °F 27.1 °F 33.8 °F 93% 29.82 in 5.0 mi WSW 12.7 mph - N/A   Partly Cloudy
4:55 PM 35.6 °F 28.0 °F 33.8 °F 93% 29.82 in 5.0 mi WSW 10.4 mph - N/A   Scattered Clouds
5:15 PM 35.6 °F 27.5 °F 33.8 °F 93% 29.83 in 5.0 mi SW 11.5 mph - N/A   Clear
5:35 PM 35.6 °F 27.1 °F 33.8 °F 93% 29.84 in 5.0 mi SW 12.7 mph 18.4 mph N/A   Mostly Cloudy
5:55 PM 35.6 °F 28.0 °F 33.8 °F 93% 29.84 in 6.0 mi WSW 10.4 mph - N/A   Overcast
6:15 PM 35.6 °F 28.0 °F 33.8 °F 93% 29.82 in 7.0 mi SW 10.4 mph - N/A   Overcast
6:35 PM 35.6 °F 27.1 °F 33.8 °F 93% 29.86 in 7.0 mi WSW 12.7 mph - N/A   Overcast
6:55 PM 35.6 °F 28.0 °F 33.8 °F 93% 29.86 in 6.0 mi WSW 10.4 mph 18.4 mph N/A   Overcast
7:15 PM 35.6 °F 28.0 °F 33.8 °F 93% 29.86 in 6.0 mi WSW 10.4 mph - N/A   Mostly Cloudy
7:35 PM 35.6 °F 27.1 °F 33.8 °F 93% 29.87 in 6.0 mi WSW 12.7 mph - N/A   Mostly Cloudy
7:55 PM 35.6 °F 28.0 °F 33.8 °F 93% 29.85 in 6.0 mi SW 10.4 mph - N/A   Mostly Cloudy
8:15 PM 35.6 °F 29.2 °F 33.8 °F 93% 29.83 in 6.0 mi WSW 8.1 mph - N/A   Overcast
8:35 PM 35.6 °F 28.0 °F 33.8 °F 93% 29.83 in 6.0 mi WSW 10.4 mph - N/A   Overcast
8:55 PM 35.6 °F 27.1 °F 33.8 °F 93% 29.84 in 5.0 mi WSW 12.7 mph - N/A   Overcast
9:15 PM 37.4 °F 29.8 °F 33.8 °F 87% 29.85 in 5.0 mi West 11.5 mph - N/A   Overcast
9:35 PM 35.6 °F 28.0 °F 33.8 °F 93% 29.87 in 5.0 mi West 10.4 mph - N/A   Overcast
9:55 PM 35.6 °F 29.9 °F 33.8 °F 93% 29.86 in 4.0 mi WSW 6.9 mph - N/A   Overcast
10:15 PM 35.6 °F 29.9 °F 33.8 °F 93% 29.88 in 4.0 mi WSW 6.9 mph - N/A Rain Rain
10:35 PM 35.6 °F 29.9 °F 33.8 °F 93% 29.87 in 4.0 mi WSW 6.9 mph - N/A Rain Rain
10:55 PM 35.6 °F 29.9 °F 33.8 °F 93% 29.87 in 4.0 mi WSW 6.9 mph - N/A Rain Rain
11:15 PM 35.6 °F 29.9 °F 33.8 °F 93% 29.87 in 4.0 mi WSW 6.9 mph - N/A Rain Light Rain
11:35 PM 35.6 °F 30.7 °F 33.8 °F 93% 29.87 in 3.0 mi West 5.8 mph - N/A Rain Light Rain
11:55 PM 35.6 °F 30.7 °F 33.8 °F 93% 29.87 in 3.0 mi WSW 5.8 mph - N/A Rain Light Rain